User: anonymous   Login
Location: Charleston
(38.3500°N, 81.6330°W)
Time: 00:50:40
(UTC-04:00)
Language:

Cosmos 2228 - Orbit

View from above orbital plane
View from above orbital plane
View from above satellite
View from above satellite

Ground track
Ground track

The orbit data is extracted from the following two-line orbital elements,

1 22286U 92094A   14303.13577449  .00002458  00000-0  27628-3 0  4706
2 22286 082.5238 199.5436 0022838 070.9922 289.3765 14.86155844179653
Epoch (UTC): 30 October 2014 03:15:30
Eccentricity: 0.0022838
inclination: 82.5238°
perigee height: 594 km
apogee height: 626 km
right ascension of ascending node: 199.5436°
argument of perigee: 70.9922°
revolutions per day: 14.86155844
mean anomaly at epoch: 289.3765°
orbit number at epoch: 17965

The dashed part of the orbit path shows where the satellite is in the earth's shadow,  

DLR